カタログに戻る

BD-18

運用中ナビゲーションMEO
NORAD 40748·PAYLOAD·🇨🇳 China

打ち上げ Jul 25, 2015 から Xichang Satellite Launch Center

Loading…

次のパス (今後24時間)

TLE

最新Source: Space-Track

元期: Sep 14, 2026, 10:58 UTC

1 40748U 15037A   26257.45702616 -.00000060  00000-0  00000-0 0  9999
2 40748  54.7885 298.9657 0011759 260.3060  99.6210  1.86231963 75781

AllMySatでBD-18をリアルタイム追跡

Download on the App Store